Simultaneous Nadir Overpasses (SNOs) Predictions

Prediction of SNOs between METOP-A and NOAA-19 Satellite Orbit:

Table of predicted SNOs for the next 14.0 days since TLE Epoch: 5/4/2019
Index Date (METOP-A) Time (METOP-A) Lat,Lon (METOP-A) SZA (METOP-A ) Date (NOAA-19) Time (NOAA-19) Lat,Lon (NOAA-19) SZA (NOAA-19 ) Distance(km) Time Diff (sec)
1 05/14/2019 05:08:51 79.64, 114.70 61.31 05/14/2019 05:07:37 79.62, 114.60 61.27 3.34 74
2 05/14/2019 05:59:33 -79.63, -78.08 118.73 05/14/2019 05:58:34 -79.61, -78.06 118.75 2.05 59
3 05/14/2019 06:50:13 79.62, 89.18 61.26 05/14/2019 06:49:38 79.62, 89.06 61.25 2.57 35
4 05/14/2019 07:40:55 -79.61,-103.60 118.77 05/14/2019 07:40:35 -79.61,-103.59 118.77 0.78 20
5 05/14/2019 08:31:35 79.60, 63.67 61.21 05/14/2019 08:31:38 79.60, 63.81 61.22 2.78 3
6 05/14/2019 09:22:16 -79.62,-128.84 118.77 05/14/2019 09:22:35 -79.59,-128.84 118.80 3.27 19
7 05/14/2019 10:12:56 79.61, 38.43 61.21 05/14/2019 10:13:39 79.60, 38.27 61.21 3.34 43
8 05/14/2019 11:03:38 -79.60,-154.36 118.82 05/14/2019 11:04:36 -79.59,-154.38 118.81 0.63 58




NCC Satellite Simultaneous Nadir Overpasses (SNOs) Prediction Service
